Time,TemperatureF,DewpointF,PressureIn,WindDirection,WindDirectionDegrees,WindSpeedMPH,WindSpeedGustMPH,Humidity,HourlyPrecipIn,Conditions,Clouds,dailyrainin,SoftwareType,DateUTC
2013-01-30 00:03:00,42.8,40.6,30.35,NNE,17,1.0,2.0,92,0.00,,,0.00,WUHU216DAVISVP2,2013-01-30 08:03:00,
2013-01-30 00:08:00,42.3,40.4,30.35,North,356,0.0,2.0,93,0.00,,,0.00,WUHU216DAVISVP2,2013-01-30 08:08:00,
2013-01-30 00:13:00,42.1,40.2,30.35,NNE,19,0.0,2.0,93,0.00,,,0.00,WUHU216DAVISVP2,2013-01-30 08:13:00,
2013-01-30 00:18:00,41.9,40.0,30.35,NNE,18,0.0,2.0,93,0.00,,,0.00,WUHU216DAVISVP2,2013-01-30 08:18:00,
2013-01-30 00:23:00,42.0,40.4,30.35,NNE,32,0.0,2.0,94,0.00,,,0.00,WUHU216DAVISVP2,2013-01-30 08:23:00,
2013-01-30 00:28:00,42.3,40.9,30.34,West,262,1.0,2.0,95,0.00,,,0.00,WUHU216DAVISVP2,2013-01-30 08:28:00,
2013-01-30 00:33:00,42.7,41.3,30.34,NW,308,1.0,2.0,95,0.00,,,0.00,WUHU216DAVISVP2,2013-01-30 08:33:00,
2013-01-30 00:38:00,42.4,40.5,30.34,NNW,342,2.0,2.0,93,0.00,,,0.00,WUHU216DAVISVP2,2013-01-30 08:38:00,
2013-01-30 00:43:00,41.9,40.3,30.34,NNE,19,2.0,2.0,94,0.00,,,0.00,WUHU216DAVISVP2,2013-01-30 08:43:00,
2013-01-30 00:48:00,43.5,42.7,30.34,North,354,5.0,7.0,97,0.00,,,0.00,WUHU216DAVISVP2,2013-01-30 08:48:00,
2013-01-30 00:53:00,44.8,44.0,30.34,NNE,18,1.0,7.0,97,0.00,,,0.00,WUHU216DAVISVP2,2013-01-30 08:53:00,
2013-01-30 00:58:00,45.5,44.7,30.33,NNE,30,4.0,7.0,97,0.00,,,0.00,WUHU216DAVISVP2,2013-01-30 08:58:00,
2013-01-30 01:03:00,46.1,45.3,30.33,North,9,3.0,7.0,97,0.00,,,0.00,WUHU216DAVISVP2,2013-01-30 09:03:00,
2013-01-30 01:08:00,46.7,45.6,30.33,NNE,27,5.0,7.0,96,0.00,,,0.00,WUHU216DAVISVP2,2013-01-30 09:08:00,
2013-01-30 01:13:00,46.8,45.4,30.33,NNE,16,3.0,7.0,95,0.00,,,0.00,WUHU216DAVISVP2,2013-01-30 09:13:00,
2013-01-30 01:18:00,46.8,45.4,30.33,East,83,1.0,7.0,95,0.00,,,0.00,WUHU216DAVISVP2,2013-01-30 09:18:00,
2013-01-30 01:23:00,46.7,45.3,30.33,NE,37,1.0,7.0,95,0.00,,,0.00,WUHU216DAVISVP2,2013-01-30 09:23:00,
2013-01-30 01:28:00,46.9,45.5,30.33,NNW,340,4.0,9.0,95,0.00,,,0.00,WUHU216DAVISVP2,2013-01-30 09:28:00,
2013-01-30 01:33:00,46.9,45.2,30.33,NNE,24,3.0,9.0,94,0.00,,,0.00,WUHU216DAVISVP2,2013-01-30 09:33:00,
2013-01-30 01:38:00,46.7,45.0,30.33,North,7,2.0,9.0,94,0.00,,,0.00,WUHU216DAVISVP2,2013-01-30 09:38:00,
2013-01-30 01:43:00,46.7,45.1,30.33,NNE,25,1.0,9.0,94,0.00,,,0.00,WUHU216DAVISVP2,2013-01-30 09:43:00,
2013-01-30 01:48:00,46.9,45.3,30.33,NNE,20,2.0,6.0,94,0.00,,,0.00,WUHU216DAVISVP2,2013-01-30 09:48:00,
2013-01-30 01:53:00,46.9,45.2,30.33,NNW,345,4.0,5.0,94,0.00,,,0.00,WUHU216DAVISVP2,2013-01-30 09:53:00,
2013-01-30 01:58:00,46.8,44.9,30.33,NNW,340,2.0,6.0,93,0.00,,,0.00,WUHU216DAVISVP2,2013-01-30 09:58:00,
2013-01-30 02:03:00,46.5,44.9,30.33,North,359,3.0,7.0,94,0.00,,,0.00,WUHU216DAVISVP2,2013-01-30 10:03:00,
2013-01-30 02:08:00,46.5,44.6,30.33,NE,36,2.0,7.0,93,0.00,,,0.00,WUHU216DAVISVP2,2013-01-30 10:08:00,
2013-01-30 02:13:00,46.4,44.7,30.33,NNW,339,3.0,8.0,94,0.00,,,0.00,WUHU216DAVISVP2,2013-01-30 10:13:00,
2013-01-30 02:18:00,46.6,44.9,30.33,NNW,347,6.0,8.0,94,0.00,,,0.00,WUHU216DAVISVP2,2013-01-30 10:18:00,
2013-01-30 02:23:00,46.6,44.9,30.33,NE,39,2.0,8.0,94,0.00,,,0.00,WUHU216DAVISVP2,2013-01-30 10:23:00,
2013-01-30 02:28:00,46.6,44.9,30.33,NNE,19,5.0,8.0,94,0.00,,,0.00,WUHU216DAVISVP2,2013-01-30 10:28:00,
2013-01-30 02:33:00,46.8,45.1,30.33,North,349,4.0,7.0,94,0.00,,,0.00,WUHU216DAVISVP2,2013-01-30 10:33:00,
2013-01-30 02:38:00,46.8,45.4,30.33,NNE,13,9.0,9.0,95,0.00,,,0.00,WUHU216DAVISVP2,2013-01-30 10:38:00,
2013-01-30 02:43:00,47.0,45.3,30.33,North,349,4.0,11.0,94,0.00,,,0.00,WUHU216DAVISVP2,2013-01-30 10:43:00,
2013-01-30 02:48:00,46.8,45.1,30.32,NE,39,1.0,11.0,94,0.00,,,0.00,WUHU216DAVISVP2,2013-01-30 10:48:00,
2013-01-30 02:53:00,46.6,44.9,30.32,NNE,14,4.0,11.0,94,0.00,,,0.00,WUHU216DAVISVP2,2013-01-30 10:53:00,
2013-01-30 02:58:00,47.2,46.1,30.32,North,349,3.0,10.0,96,0.00,,,0.00,WUHU216DAVISVP2,2013-01-30 10:58:00,
2013-01-30 03:03:00,47.6,46.2,30.32,NNW,344,5.0,10.0,95,0.00,,,0.00,WUHU216DAVISVP2,2013-01-30 11:03:00,
2013-01-30 03:08:00,47.6,45.9,30.32,North,11,3.0,10.0,94,0.00,,,0.00,WUHU216DAVISVP2,2013-01-30 11:08:00,
2013-01-30 03:13:00,47.6,46.0,30.32,ENE,60,0.0,8.0,94,0.00,,,0.00,WUHU216DAVISVP2,2013-01-30 11:13:00,
2013-01-30 03:18:00,47.5,45.6,30.32,NNW,338,1.0,8.0,93,0.00,,,0.00,WUHU216DAVISVP2,2013-01-30 11:18:00,
2013-01-30 03:23:00,47.3,45.0,30.32,North,356,5.0,7.0,92,0.00,,,0.00,WUHU216DAVISVP2,2013-01-30 11:23:00,
2013-01-30 03:28:00,46.8,44.6,30.32,NNW,347,3.0,6.0,92,0.00,,,0.00,WUHU216DAVISVP2,2013-01-30 11:28:00,
2013-01-30 03:33:00,46.6,44.6,30.31,NE,40,3.0,6.0,93,0.00,,,0.00,WUHU216DAVISVP2,2013-01-30 11:33:00,
2013-01-30 03:38:00,46.4,44.2,30.32,NNE,13,1.0,6.0,92,0.00,,,0.00,WUHU216DAVISVP2,2013-01-30 11:38:00,
2013-01-30 03:43:00,46.5,45.1,30.31,NNE,21,5.0,6.0,95,0.00,,,0.00,WUHU216DAVISVP2,2013-01-30 11:43:00,
2013-01-30 03:48:00,47.4,45.8,30.31,North,9,2.0,6.0,94,0.00,,,0.00,WUHU216DAVISVP2,2013-01-30 11:48:00,
2013-01-30 03:53:00,47.2,45.3,30.31,NNE,18,3.0,6.0,93,0.00,,,0.00,WUHU216DAVISVP2,2013-01-30 11:53:00,
2013-01-30 03:58:00,46.9,45.0,30.31,NNE,25,0.0,6.0,93,0.00,,,0.00,WUHU216DAVISVP2,2013-01-30 11:58:00,
2013-01-30 04:03:00,46.2,44.0,30.32,ESE,104,0.0,6.0,92,0.00,,,0.00,WUHU216DAVISVP2,2013-01-30 12:03:00,
2013-01-30 04:08:00,45.9,43.7,30.32,ESE,105,0.0,5.0,92,0.00,,,0.00,WUHU216DAVISVP2,2013-01-30 12:08:00,
2013-01-30 04:13:00,46.0,44.0,30.32,NNW,345,1.0,3.0,93,0.00,,,0.00,WUHU216DAVISVP2,2013-01-30 12:13:00,
2013-01-30 04:18:00,46.0,43.8,30.31,WSW,242,0.0,3.0,92,0.00,,,0.00,WUHU216DAVISVP2,2013-01-30 12:18:00,
2013-01-30 04:23:00,45.8,43.8,30.31,NNE,20,3.0,4.0,93,0.00,,,0.00,WUHU216DAVISVP2,2013-01-30 12:23:00,
2013-01-30 04:28:00,45.3,43.1,30.31,NNW,328,0.0,4.0,92,0.00,,,0.00,WUHU216DAVISVP2,2013-01-30 12:28:00,
2013-01-30 04:33:00,44.9,43.0,30.31,SW,235,0.0,4.0,93,0.00,,,0.00,WUHU216DAVISVP2,2013-01-30 12:33:00,
2013-01-30 04:38:00,45.0,43.3,30.31,SW,236,0.0,4.0,94,0.00,,,0.00,WUHU216DAVISVP2,2013-01-30 12:38:00,
2013-01-30 04:43:00,45.2,43.5,30.32,ESE,110,1.0,2.0,94,0.00,,,0.00,WUHU216DAVISVP2,2013-01-30 12:43:00,
2013-01-30 04:48:00,45.9,44.5,30.32,West,266,1.0,2.0,95,0.00,,,0.00,WUHU216DAVISVP2,2013-01-30 12:48:00,
2013-01-30 04:53:00,45.9,44.2,30.31,NE,46,1.0,2.0,94,0.00,,,0.00,WUHU216DAVISVP2,2013-01-30 12:53:00,
2013-01-30 04:58:00,45.6,43.6,30.31,NNE,27,1.0,2.0,93,0.00,,,0.00,WUHU216DAVISVP2,2013-01-30 12:58:00,
2013-01-30 05:03:00,45.5,43.8,30.32,ENE,73,2.0,2.0,94,0.00,,,0.00,WUHU216DAVISVP2,2013-01-30 13:03:00,
2013-01-30 05:08:00,45.4,43.7,30.32,NW,316,0.0,2.0,94,0.00,,,0.00,WUHU216DAVISVP2,2013-01-30 13:08:00,
2013-01-30 05:13:00,45.7,44.3,30.32,NNW,330,1.0,2.0,95,0.00,,,0.00,WUHU216DAVISVP2,2013-01-30 13:13:00,
2013-01-30 05:18:00,46.6,45.5,30.32,West,264,0.0,2.0,96,0.00,,,0.00,WUHU216DAVISVP2,2013-01-30 13:18:00,
2013-01-30 05:23:00,46.4,44.8,30.32,NNE,32,0.0,2.0,94,0.00,,,0.00,WUHU216DAVISVP2,2013-01-30 13:23:00,
2013-01-30 05:28:00,46.4,44.7,30.32,NNE,22,0.0,2.0,94,0.00,,,0.00,WUHU216DAVISVP2,2013-01-30 13:28:00,
2013-01-30 05:33:00,46.5,45.1,30.31,WSW,256,1.0,2.0,95,0.00,,,0.00,WUHU216DAVISVP2,2013-01-30 13:33:00,
2013-01-30 05:38:00,46.7,45.3,30.32,North,4,0.0,2.0,95,0.00,,,0.00,WUHU216DAVISVP2,2013-01-30 13:38:00,
2013-01-30 05:43:00,47.1,45.7,30.32,NW,319,2.0,6.0,95,0.00,,,0.00,WUHU216DAVISVP2,2013-01-30 13:43:00,
2013-01-30 05:48:00,47.4,45.7,30.32,NW,326,0.0,6.0,94,0.00,,,0.00,WUHU216DAVISVP2,2013-01-30 13:48:00,
2013-01-30 05:53:00,47.3,45.3,30.32,WSW,249,0.0,6.0,93,0.00,,,0.00,WUHU216DAVISVP2,2013-01-30 13:53:00,
2013-01-30 05:58:00,47.4,45.7,30.32,WNW,297,4.0,6.0,94,0.00,,,0.00,WUHU216DAVISVP2,2013-01-30 13:58:00,
2013-01-30 06:03:00,47.6,45.9,30.32,WNW,303,2.0,4.0,94,0.00,,,0.00,WUHU216DAVISVP2,2013-01-30 14:03:00,
2013-01-30 06:08:00,47.4,45.4,30.32,West,271,1.0,4.0,93,0.00,,,0.00,WUHU216DAVISVP2,2013-01-30 14:08:00,
2013-01-30 06:13:00,46.3,43.8,30.33,NW,304,1.0,4.0,91,0.00,,,0.00,WUHU216DAVISVP2,2013-01-30 14:13:00,
2013-01-30 06:18:00,46.0,43.8,30.32,NNE,22,0.0,4.0,92,0.00,,,0.00,WUHU216DAVISVP2,2013-01-30 14:18:00,
2013-01-30 06:23:00,45.6,43.9,30.33,NW,317,2.0,3.0,94,0.00,,,0.00,WUHU216DAVISVP2,2013-01-30 14:23:00,
2013-01-30 06:28:00,45.7,43.7,30.33,NNW,330,1.0,2.0,93,0.00,,,0.00,WUHU216DAVISVP2,2013-01-30 14:28:00,
2013-01-30 06:33:00,45.2,43.3,30.33,NNW,333,0.0,2.0,93,0.00,,,0.00,WUHU216DAVISVP2,2013-01-30 14:33:00,
2013-01-30 06:38:00,44.9,43.2,30.33,NW,324,3.0,3.0,94,0.00,,,0.00,WUHU216DAVISVP2,2013-01-30 14:38:00,
2013-01-30 06:43:00,45.7,44.9,30.33,NW,314,4.0,4.0,97,0.00,,,0.00,WUHU216DAVISVP2,2013-01-30 14:43:00,
2013-01-30 06:48:00,47.1,46.3,30.33,NW,310,6.0,6.0,97,0.00,,,0.00,WUHU216DAVISVP2,2013-01-30 14:48:00,
2013-01-30 06:53:00,48.0,47.2,30.33,WNW,302,4.0,6.0,97,0.00,,,0.00,WUHU216DAVISVP2,2013-01-30 14:53:00,
2013-01-30 06:58:00,48.4,47.3,30.34,NW,304,5.0,7.0,96,0.00,,,0.00,WUHU216DAVISVP2,2013-01-30 14:58:00,
2013-01-30 07:03:00,48.7,47.3,30.34,NW,312,7.0,7.0,95,0.00,,,0.00,WUHU216DAVISVP2,2013-01-30 15:03:00,
2013-01-30 07:08:00,48.7,47.3,30.34,NNW,327,4.0,9.0,95,0.00,,,0.00,WUHU216DAVISVP2,2013-01-30 15:08:00,
2013-01-30 07:13:00,48.8,47.4,30.34,North,353,5.0,9.0,95,0.00,,,0.00,WUHU216DAVISVP2,2013-01-30 15:13:00,
2013-01-30 07:18:00,48.9,47.5,30.34,NW,326,5.0,10.0,95,0.00,,,0.00,WUHU216DAVISVP2,2013-01-30 15:18:00,
2013-01-30 07:23:00,48.9,47.5,30.34,NW,316,6.0,10.0,95,0.00,,,0.00,WUHU216DAVISVP2,2013-01-30 15:23:00,
2013-01-30 07:28:00,49.0,47.6,30.35,NNE,18,2.0,10.0,95,0.00,,,0.00,WUHU216DAVISVP2,2013-01-30 15:28:00,
2013-01-30 07:33:00,49.0,47.6,30.35,NNW,342,7.0,9.0,95,0.00,,,0.00,WUHU216DAVISVP2,2013-01-30 15:33:00,
2013-01-30 07:38:00,48.7,47.0,30.35,NNW,347,3.0,8.0,94,0.00,,,0.00,WUHU216DAVISVP2,2013-01-30 15:38:00,
2013-01-30 07:43:00,48.1,46.1,30.35,North,356,4.0,8.0,93,0.00,,,0.00,WUHU216DAVISVP2,2013-01-30 15:43:00,
2013-01-30 07:48:00,47.6,45.6,30.35,NNE,13,5.0,8.0,93,0.00,,,0.00,WUHU216DAVISVP2,2013-01-30 15:48:00,
2013-01-30 07:53:00,47.9,46.2,30.35,North,352,4.0,8.0,94,0.00,,,0.00,WUHU216DAVISVP2,2013-01-30 15:53:00,
2013-01-30 07:58:00,48.1,46.2,30.36,NNW,343,3.0,8.0,93,0.00,,,0.00,WUHU216DAVISVP2,2013-01-30 15:58:00,
2013-01-30 08:03:00,48.5,46.5,30.35,NNE,17,3.0,8.0,93,0.00,,,0.00,WUHU216DAVISVP2,2013-01-30 16:03:00,
2013-01-30 08:08:00,48.9,46.9,30.36,NNW,345,2.0,7.0,93,0.00,,,0.00,WUHU216DAVISVP2,2013-01-30 16:08:00,
2013-01-30 08:13:00,49.0,46.7,30.36,NW,326,2.0,7.0,92,0.00,,,0.00,WUHU216DAVISVP2,2013-01-30 16:13:00,
2013-01-30 08:18:00,49.3,47.1,30.36,North,4,1.0,7.0,92,0.00,,,0.00,WUHU216DAVISVP2,2013-01-30 16:18:00,
2013-01-30 08:23:00,49.7,47.4,30.36,North,352,3.0,6.0,92,0.00,,,0.00,WUHU216DAVISVP2,2013-01-30 16:23:00,
2013-01-30 08:28:00,50.0,47.4,30.36,NNW,335,0.0,6.0,91,0.00,,,0.00,WUHU216DAVISVP2,2013-01-30 16:28:00,
2013-01-30 08:33:00,50.2,47.6,30.36,NNE,31,2.0,4.0,91,0.00,,,0.00,WUHU216DAVISVP2,2013-01-30 16:33:00,
2013-01-30 08:38:00,50.8,48.5,30.37,ESE,105,0.0,4.0,92,0.00,,,0.00,WUHU216DAVISVP2,2013-01-30 16:38:00,
2013-01-30 08:43:00,51.6,48.4,30.37,East,92,1.0,4.0,89,0.00,,,0.00,WUHU216DAVISVP2,2013-01-30 16:43:00,
2013-01-30 08:48:00,52.0,48.5,30.37,ESE,107,1.0,3.0,88,0.00,,,0.00,WUHU216DAVISVP2,2013-01-30 16:48:00,
2013-01-30 08:53:00,52.0,48.2,30.37,ESE,110,4.0,5.0,87,0.00,,,0.00,WUHU216DAVISVP2,2013-01-30 16:53:00,
2013-01-30 08:58:00,51.0,47.5,30.37,ESE,112,5.0,6.0,88,0.00,,,0.00,WUHU216DAVISVP2,2013-01-30 16:58:00,
2013-01-30 09:03:00,50.9,48.1,30.37,ESE,106,2.0,6.0,90,0.00,,,0.00,WUHU216DAVISVP2,2013-01-30 17:03:00,
2013-01-30 09:08:00,51.3,47.8,30.37,ESE,116,5.0,6.0,88,0.00,,,0.00,WUHU216DAVISVP2,2013-01-30 17:08:00,
2013-01-30 09:13:00,50.9,47.7,30.37,SE,128,3.0,8.0,89,0.00,,,0.00,WUHU216DAVISVP2,2013-01-30 17:13:00,
2013-01-30 09:18:00,51.0,48.2,30.38,ESE,120,4.0,8.0,90,0.00,,,0.00,WUHU216DAVISVP2,2013-01-30 17:18:00,
2013-01-30 09:23:00,51.3,48.4,30.38,ESE,120,7.0,8.0,90,0.00,,,0.00,WUHU216DAVISVP2,2013-01-30 17:23:00,
2013-01-30 09:28:00,51.2,48.6,30.38,ESE,122,6.0,8.0,91,0.00,,,0.00,WUHU216DAVISVP2,2013-01-30 17:28:00,
2013-01-30 09:33:00,51.2,48.7,30.38,SE,126,6.0,7.0,91,0.00,,,0.00,WUHU216DAVISVP2,2013-01-30 17:33:00,
2013-01-30 09:38:00,51.2,48.9,30.38,SE,134,6.0,8.0,92,0.00,,,0.00,WUHU216DAVISVP2,2013-01-30 17:38:00,
2013-01-30 09:43:00,51.2,48.9,30.38,SE,146,5.0,8.0,92,0.00,,,0.00,WUHU216DAVISVP2,2013-01-30 17:43:00,
2013-01-30 09:48:00,51.2,49.0,30.38,SE,139,6.0,8.0,92,0.00,,,0.00,WUHU216DAVISVP2,2013-01-30 17:48:00,
2013-01-30 09:53:00,51.3,49.0,30.38,SE,135,3.0,8.0,92,0.00,,,0.00,WUHU216DAVISVP2,2013-01-30 17:53:00,
2013-01-30 09:58:00,51.5,48.9,30.38,SSE,147,4.0,7.0,91,0.00,,,0.00,WUHU216DAVISVP2,2013-01-30 17:58:00,
2013-01-30 10:03:00,51.6,49.0,30.39,SE,146,4.0,7.0,91,0.00,,,0.00,WUHU216DAVISVP2,2013-01-30 18:03:00,
2013-01-30 10:08:00,51.7,49.1,30.39,SE,141,5.0,6.0,91,0.00,,,0.00,WUHU216DAVISVP2,2013-01-30 18:08:00,
2013-01-30 10:13:00,51.7,49.1,30.39,SE,137,4.0,5.0,91,0.00,,,0.00,WUHU216DAVISVP2,2013-01-30 18:13:00,
2013-01-30 10:18:00,51.7,49.1,30.39,SE,136,5.0,6.0,91,0.00,,,0.00,WUHU216DAVISVP2,2013-01-30 18:18:00,
2013-01-30 10:23:00,51.6,49.1,30.39,SE,143,6.0,7.0,91,0.00,,,0.00,WUHU216DAVISVP2,2013-01-30 18:23:00,
2013-01-30 10:28:00,51.7,49.1,30.39,SE,130,8.0,8.0,91,0.00,,,0.00,WUHU216DAVISVP2,2013-01-30 18:28:00,
2013-01-30 10:33:00,51.7,49.1,30.39,SSE,150,9.0,10.0,91,0.00,,,0.00,WUHU216DAVISVP2,2013-01-30 18:33:00,
2013-01-30 10:38:00,51.7,48.8,30.39,SSE,150,10.0,11.0,90,0.00,,,0.00,WUHU216DAVISVP2,2013-01-30 18:38:00,
2013-01-30 10:43:00,51.6,49.0,30.39,SSE,148,7.0,11.0,91,0.00,,,0.00,WUHU216DAVISVP2,2013-01-30 18:43:00,
2013-01-30 10:48:00,51.8,48.9,30.39,SSE,150,8.0,11.0,90,0.00,,,0.00,WUHU216DAVISVP2,2013-01-30 18:48:00,
2013-01-30 10:53:00,51.7,49.1,30.39,SE,135,8.0,11.0,91,0.00,,,0.00,WUHU216DAVISVP2,2013-01-30 18:53:00,
2013-01-30 10:58:00,51.6,49.3,30.39,SSE,150,7.0,10.0,92,0.00,,,0.00,WUHU216DAVISVP2,2013-01-30 18:58:00,
2013-01-30 11:03:00,51.7,49.2,30.39,SSE,149,7.0,10.0,91,0.00,,,0.00,WUHU216DAVISVP2,2013-01-30 19:03:00,
2013-01-30 11:08:00,51.9,49.3,30.39,SSE,149,7.0,10.0,91,0.00,,,0.00,WUHU216DAVISVP2,2013-01-30 19:08:00,
2013-01-30 11:13:00,51.8,49.2,30.39,SE,145,6.0,9.0,91,0.00,,,0.00,WUHU216DAVISVP2,2013-01-30 19:13:00,
2013-01-30 11:18:00,51.7,49.1,30.39,SE,139,6.0,9.0,91,0.00,,,0.00,WUHU216DAVISVP2,2013-01-30 19:18:00,
2013-01-30 11:23:00,51.8,49.2,30.39,SE,139,6.0,8.0,91,0.00,,,0.00,WUHU216DAVISVP2,2013-01-30 19:23:00,
2013-01-30 11:28:00,51.8,49.2,30.38,SE,138,5.0,8.0,91,0.00,,,0.00,WUHU216DAVISVP2,2013-01-30 19:28:00,
2013-01-30 11:33:00,51.7,49.2,30.38,SE,132,6.0,8.0,91,0.00,,,0.00,WUHU216DAVISVP2,2013-01-30 19:33:00,
2013-01-30 11:38:00,51.8,49.5,30.38,SSE,151,5.0,8.0,92,0.00,,,0.00,WUHU216DAVISVP2,2013-01-30 19:38:00,
2013-01-30 11:43:00,52.0,49.4,30.38,SSE,148,6.0,8.0,91,0.00,,,0.00,WUHU216DAVISVP2,2013-01-30 19:43:00,
2013-01-30 11:48:00,51.9,49.3,30.38,SSE,149,5.0,8.0,91,0.00,,,0.00,WUHU216DAVISVP2,2013-01-30 19:48:00,
2013-01-30 11:53:00,52.0,49.4,30.38,SSE,151,5.0,7.0,91,0.00,,,0.00,WUHU216DAVISVP2,2013-01-30 19:53:00,
2013-01-30 11:58:00,52.1,49.6,30.37,SSE,159,5.0,6.0,91,0.00,,,0.00,WUHU216DAVISVP2,2013-01-30 19:58:00,
2013-01-30 12:03:00,52.1,49.5,30.37,SSE,148,5.0,6.0,91,0.00,,,0.00,WUHU216DAVISVP2,2013-01-30 20:03:00,
2013-01-30 12:08:00,52.1,49.5,30.37,SE,137,5.0,6.0,91,0.00,,,0.00,WUHU216DAVISVP2,2013-01-30 20:08:00,
2013-01-30 12:13:00,52.0,49.4,30.37,SE,144,5.0,6.0,91,0.00,,,0.00,WUHU216DAVISVP2,2013-01-30 20:13:00,
2013-01-30 12:18:00,52.1,49.5,30.36,SE,144,5.0,6.0,91,0.00,,,0.00,WUHU216DAVISVP2,2013-01-30 20:18:00,
2013-01-30 12:23:00,52.2,49.3,30.36,SE,141,5.0,6.0,90,0.00,,,0.00,WUHU216DAVISVP2,2013-01-30 20:23:00,
2013-01-30 12:28:00,52.3,49.4,30.36,SE,145,4.0,6.0,90,0.00,,,0.00,WUHU216DAVISVP2,2013-01-30 20:28:00,
2013-01-30 12:33:00,52.4,49.5,30.36,SSE,147,4.0,6.0,90,0.00,,,0.00,WUHU216DAVISVP2,2013-01-30 20:33:00,
2013-01-30 12:38:00,52.4,49.5,30.35,SE,146,3.0,5.0,90,0.00,,,0.00,WUHU216DAVISVP2,2013-01-30 20:38:00,
2013-01-30 12:43:00,52.4,49.6,30.35,SE,139,4.0,5.0,90,0.00,,,0.00,WUHU216DAVISVP2,2013-01-30 20:43:00,
2013-01-30 12:48:00,52.4,49.5,30.35,SSE,148,4.0,5.0,90,0.00,,,0.00,WUHU216DAVISVP2,2013-01-30 20:48:00,
2013-01-30 12:53:00,52.6,49.7,30.35,SSE,155,3.0,5.0,90,0.00,,,0.00,WUHU216DAVISVP2,2013-01-30 20:53:00,
2013-01-30 12:58:00,53.0,49.5,30.35,SE,144,4.0,4.0,88,0.00,,,0.00,WUHU216DAVISVP2,2013-01-30 20:58:00,
2013-01-30 13:03:00,52.8,49.3,30.34,SSE,149,2.0,4.0,88,0.00,,,0.00,WUHU216DAVISVP2,2013-01-30 21:03:00,
2013-01-30 13:08:00,52.9,49.4,30.34,SE,144,2.0,4.0,88,0.00,,,0.00,WUHU216DAVISVP2,2013-01-30 21:08:00,
2013-01-30 13:13:00,52.8,49.3,30.34,SE,136,3.0,4.0,88,0.00,,,0.00,WUHU216DAVISVP2,2013-01-30 21:13:00,
2013-01-30 13:18:00,52.7,49.5,30.34,SE,139,3.0,4.0,89,0.00,,,0.00,WUHU216DAVISVP2,2013-01-30 21:18:00,
2013-01-30 13:23:00,52.7,49.2,30.34,SSE,148,3.0,4.0,88,0.00,,,0.00,WUHU216DAVISVP2,2013-01-30 21:23:00,
2013-01-30 13:28:00,52.8,49.6,30.34,SE,143,2.0,4.0,89,0.00,,,0.00,WUHU216DAVISVP2,2013-01-30 21:28:00,
2013-01-30 13:33:00,53.0,49.8,30.34,SE,134,2.0,4.0,89,0.00,,,0.00,WUHU216DAVISVP2,2013-01-30 21:33:00,
2013-01-30 13:38:00,53.1,49.9,30.33,SE,131,3.0,4.0,89,0.00,,,0.00,WUHU216DAVISVP2,2013-01-30 21:38:00,
2013-01-30 13:43:00,53.1,49.6,30.33,SSE,148,2.0,3.0,88,0.00,,,0.00,WUHU216DAVISVP2,2013-01-30 21:43:00,
2013-01-30 13:48:00,53.3,49.8,30.33,SSE,149,3.0,3.0,88,0.00,,,0.00,WUHU216DAVISVP2,2013-01-30 21:48:00,
2013-01-30 13:53:00,53.2,49.7,30.33,SSE,151,2.0,3.0,88,0.00,,,0.00,WUHU216DAVISVP2,2013-01-30 21:53:00,
2013-01-30 13:58:00,53.6,50.1,30.33,SSE,148,2.0,3.0,88,0.00,,,0.00,WUHU216DAVISVP2,2013-01-30 21:58:00,
2013-01-30 14:03:00,54.5,51.0,30.33,SSE,147,2.0,3.0,88,0.00,,,0.00,WUHU216DAVISVP2,2013-01-30 22:03:00,
2013-01-30 14:08:00,54.3,49.9,30.33,SE,143,2.0,3.0,85,0.00,,,0.00,WUHU216DAVISVP2,2013-01-30 22:08:00,
2013-01-30 14:13:00,53.8,49.7,30.33,SSE,152,3.0,3.0,86,0.00,,,0.00,WUHU216DAVISVP2,2013-01-30 22:13:00,
2013-01-30 14:18:00,53.7,49.6,30.33,SE,139,2.0,3.0,86,0.00,,,0.00,WUHU216DAVISVP2,2013-01-30 22:18:00,
2013-01-30 14:23:00,53.7,49.9,30.33,SSE,148,3.0,3.0,87,0.00,,,0.00,WUHU216DAVISVP2,2013-01-30 22:23:00,
2013-01-30 14:28:00,53.7,49.9,30.33,SSE,150,2.0,3.0,87,0.00,,,0.00,WUHU216DAVISVP2,2013-01-30 22:28:00,
2013-01-30 14:33:00,54.2,49.8,30.33,SE,144,3.0,4.0,85,0.00,,,0.00,WUHU216DAVISVP2,2013-01-30 22:33:00,
2013-01-30 14:38:00,53.9,49.8,30.33,SSE,157,3.0,4.0,86,0.00,,,0.00,WUHU216DAVISVP2,2013-01-30 22:38:00,
2013-01-30 14:43:00,53.9,49.8,30.33,SE,144,3.0,4.0,86,0.00,,,0.00,WUHU216DAVISVP2,2013-01-30 22:43:00,
2013-01-30 14:48:00,53.8,50.0,30.32,SSE,147,3.0,4.0,87,0.00,,,0.00,WUHU216DAVISVP2,2013-01-30 22:48:00,
2013-01-30 14:53:00,53.7,49.9,30.33,SSE,152,4.0,4.0,87,0.00,,,0.00,WUHU216DAVISVP2,2013-01-30 22:53:00,
2013-01-30 14:58:00,53.7,50.2,30.32,SE,141,5.0,5.0,88,0.00,,,0.00,WUHU216DAVISVP2,2013-01-30 22:58:00,
2013-01-30 15:03:00,53.6,49.8,30.32,SSE,148,4.0,5.0,87,0.00,,,0.00,WUHU216DAVISVP2,2013-01-30 23:03:00,
2013-01-30 15:08:00,53.7,50.2,30.32,SE,145,3.0,5.0,88,0.00,,,0.00,WUHU216DAVISVP2,2013-01-30 23:08:00,
2013-01-30 15:13:00,53.6,49.8,30.32,SSE,151,3.0,5.0,87,0.00,,,0.00,WUHU216DAVISVP2,2013-01-30 23:13:00,
2013-01-30 15:18:00,53.5,50.0,30.32,SE,138,3.0,5.0,88,0.00,,,0.00,WUHU216DAVISVP2,2013-01-30 23:18:00,
2013-01-30 15:23:00,53.5,50.0,30.32,SE,141,3.0,4.0,88,0.00,,,0.00,WUHU216DAVISVP2,2013-01-30 23:23:00,
2013-01-30 15:28:00,53.7,50.5,30.32,SSE,153,3.0,4.0,89,0.00,,,0.00,WUHU216DAVISVP2,2013-01-30 23:28:00,
2013-01-30 15:33:00,53.9,50.4,30.32,SSE,153,3.0,4.0,88,0.00,,,0.00,WUHU216DAVISVP2,2013-01-30 23:33:00,
2013-01-30 15:38:00,54.0,50.5,30.32,South,170,3.0,4.0,88,0.00,,,0.00,WUHU216DAVISVP2,2013-01-30 23:38:00,
2013-01-30 15:43:00,54.8,51.0,30.32,South,181,2.0,4.0,87,0.00,,,0.00,WUHU216DAVISVP2,2013-01-30 23:43:00,
2013-01-30 15:48:00,55.9,50.8,30.32,South,171,3.0,4.0,83,0.00,,,0.00,WUHU216DAVISVP2,2013-01-30 23:48:00,
2013-01-30 15:53:00,56.2,51.1,30.32,SSE,168,2.0,3.0,83,0.00,,,0.00,WUHU216DAVISVP2,2013-01-30 23:53:00,
2013-01-30 15:58:00,55.9,50.5,30.32,SSE,152,0.0,3.0,82,0.00,,,0.00,WUHU216DAVISVP2,2013-01-30 23:58:00,
2013-01-30 16:03:00,55.5,50.4,30.32,SSE,150,1.0,3.0,83,0.00,,,0.00,WUHU216DAVISVP2,2013-01-31 00:03:00,
2013-01-30 16:08:00,55.2,50.8,30.32,South,172,1.0,3.0,85,0.00,,,0.00,WUHU216DAVISVP2,2013-01-31 00:08:00,
2013-01-30 16:13:00,56.7,51.6,30.32,South,172,0.0,2.0,83,0.00,,,0.00,WUHU216DAVISVP2,2013-01-31 00:13:00,
2013-01-30 16:18:00,57.8,51.4,30.32,SSE,163,0.0,2.0,79,0.00,,,0.00,WUHU216DAVISVP2,2013-01-31 00:18:00,
2013-01-30 16:23:00,58.4,51.2,30.32,SSE,165,0.0,2.0,77,0.00,,,0.00,WUHU216DAVISVP2,2013-01-31 00:23:00,
2013-01-30 16:28:00,57.3,50.6,30.32,SW,231,1.0,2.0,78,0.00,,,0.00,WUHU216DAVISVP2,2013-01-31 00:28:00,
2013-01-30 16:33:00,55.9,50.2,30.32,SW,235,2.0,2.0,81,0.00,,,0.00,WUHU216DAVISVP2,2013-01-31 00:33:00,
2013-01-30 16:38:00,55.2,49.8,30.32,SW,235,2.0,3.0,82,0.00,,,0.00,WUHU216DAVISVP2,2013-01-31 00:38:00,
2013-01-30 16:43:00,54.5,49.8,30.32,SW,222,2.0,3.0,84,0.00,,,0.00,WUHU216DAVISVP2,2013-01-31 00:43:00,
2013-01-30 16:48:00,54.4,50.0,30.32,SW,220,0.0,3.0,85,0.00,,,0.00,WUHU216DAVISVP2,2013-01-31 00:48:00,
2013-01-30 16:53:00,54.7,50.0,30.32,SW,217,1.0,3.0,84,0.00,,,0.00,WUHU216DAVISVP2,2013-01-31 00:53:00,
2013-01-30 16:58:00,53.9,49.2,30.32,WSW,248,1.0,3.0,84,0.00,,,0.00,WUHU216DAVISVP2,2013-01-31 00:58:00,
2013-01-30 17:03:00,53.2,49.4,30.32,WSW,253,0.0,2.0,87,0.00,,,0.00,WUHU216DAVISVP2,2013-01-31 01:03:00,
2013-01-30 17:08:00,52.9,49.1,30.32,WSW,253,0.0,2.0,87,0.00,,,0.00,WUHU216DAVISVP2,2013-01-31 01:08:00,
2013-01-30 17:13:00,52.6,49.1,30.32,WSW,252,0.0,2.0,88,0.00,,,0.00,WUHU216DAVISVP2,2013-01-31 01:13:00,
2013-01-30 17:18:00,52.3,49.1,30.32,WSW,252,0.0,2.0,89,0.00,,,0.00,WUHU216DAVISVP2,2013-01-31 01:18:00,
2013-01-30 17:23:00,51.9,48.7,30.32,WSW,257,0.0,1.0,89,0.00,,,0.00,WUHU216DAVISVP2,2013-01-31 01:23:00,
2013-01-30 17:28:00,51.6,48.4,30.31,WNW,290,0.0,1.0,89,0.00,,,0.00,WUHU216DAVISVP2,2013-01-31 01:28:00,
2013-01-30 17:33:00,51.2,48.3,30.31,WNW,298,1.0,1.0,90,0.00,,,0.00,WUHU216DAVISVP2,2013-01-31 01:33:00,
2013-01-30 17:38:00,51.1,48.3,30.31,NNW,336,0.0,3.0,90,0.00,,,0.00,WUHU216DAVISVP2,2013-01-31 01:38:00,
2013-01-30 17:43:00,50.9,48.0,30.31,North,349,2.0,3.0,90,0.00,,,0.00,WUHU216DAVISVP2,2013-01-31 01:43:00,
2013-01-30 17:48:00,50.7,47.8,30.31,North,356,2.0,3.0,90,0.00,,,0.00,WUHU216DAVISVP2,2013-01-31 01:48:00,
2013-01-30 17:53:00,50.3,47.4,30.31,NNW,332,1.0,4.0,90,0.00,,,0.00,WUHU216DAVISVP2,2013-01-31 01:53:00,
2013-01-30 17:58:00,49.9,47.0,30.31,NNW,340,1.0,4.0,90,0.00,,,0.00,WUHU216DAVISVP2,2013-01-31 01:58:00,
2013-01-30 18:03:00,49.6,47.0,30.31,North,360,3.0,4.0,91,0.00,,,0.00,WUHU216DAVISVP2,2013-01-31 02:03:00,
2013-01-30 18:08:00,49.5,46.9,30.31,NNW,341,2.0,4.0,91,0.00,,,0.00,WUHU216DAVISVP2,2013-01-31 02:08:00,
2013-01-30 18:13:00,49.3,46.5,30.31,North,10,2.0,4.0,90,0.00,,,0.00,WUHU216DAVISVP2,2013-01-31 02:13:00,
2013-01-30 18:18:00,49.2,46.4,30.31,North,6,1.0,4.0,90,0.00,,,0.00,WUHU216DAVISVP2,2013-01-31 02:18:00,
2013-01-30 18:23:00,49.0,46.2,30.31,North,6,0.0,3.0,90,0.00,,,0.00,WUHU216DAVISVP2,2013-01-31 02:23:00,
2013-01-30 18:28:00,48.8,46.0,30.31,North,6,0.0,3.0,90,0.00,,,0.00,WUHU216DAVISVP2,2013-01-31 02:28:00,
2013-01-30 18:33:00,48.6,45.8,30.32,North,8,0.0,3.0,90,0.00,,,0.00,WUHU216DAVISVP2,2013-01-31 02:33:00,
2013-01-30 18:38:00,48.5,45.4,30.32,North,7,0.0,1.0,89,0.00,,,0.00,WUHU216DAVISVP2,2013-01-31 02:38:00,
2013-01-30 18:43:00,48.3,45.2,30.32,NW,325,0.0,2.0,89,0.00,,,0.00,WUHU216DAVISVP2,2013-01-31 02:43:00,
2013-01-30 18:48:00,48.2,45.1,30.32,NW,325,0.0,2.0,89,0.00,,,0.00,WUHU216DAVISVP2,2013-01-31 02:48:00,
2013-01-30 18:53:00,47.9,44.8,30.31,NNW,340,2.0,2.0,89,0.00,,,0.00,WUHU216DAVISVP2,2013-01-31 02:53:00,
2013-01-30 18:58:00,47.3,43.9,30.32,NNW,336,2.0,3.0,88,0.00,,,0.00,WUHU216DAVISVP2,2013-01-31 02:58:00,
2013-01-30 19:03:00,46.7,43.3,30.31,NNW,342,2.0,3.0,88,0.00,,,0.00,WUHU216DAVISVP2,2013-01-31 03:03:00,
2013-01-30 19:08:00,46.2,42.8,30.31,NNW,340,2.0,3.0,88,0.00,,,0.00,WUHU216DAVISVP2,2013-01-31 03:08:00,
2013-01-30 19:13:00,46.0,42.6,30.31,NNW,339,3.0,4.0,88,0.00,,,0.00,WUHU216DAVISVP2,2013-01-31 03:13:00,
2013-01-30 19:18:00,45.5,42.1,30.31,NNW,345,3.0,4.0,88,0.00,,,0.00,WUHU216DAVISVP2,2013-01-31 03:18:00,
2013-01-30 19:23:00,45.0,41.9,30.31,NNW,345,3.0,4.0,89,0.00,,,0.00,WUHU216DAVISVP2,2013-01-31 03:23:00,
2013-01-30 19:28:00,45.0,42.2,30.31,North,355,3.0,4.0,90,0.00,,,0.00,WUHU216DAVISVP2,2013-01-31 03:28:00,
2013-01-30 19:33:00,45.0,42.0,30.31,North,2,2.0,4.0,89,0.00,,,0.00,WUHU216DAVISVP2,2013-01-31 03:33:00,
2013-01-30 19:38:00,44.9,41.8,30.31,NNE,15,2.0,4.0,89,0.00,,,0.00,WUHU216DAVISVP2,2013-01-31 03:38:00,
2013-01-30 19:43:00,44.9,41.5,30.31,NNW,327,2.0,4.0,88,0.00,,,0.00,WUHU216DAVISVP2,2013-01-31 03:43:00,
2013-01-30 19:48:00,44.7,41.3,30.31,NNW,342,3.0,4.0,88,0.00,,,0.00,WUHU216DAVISVP2,2013-01-31 03:48:00,
2013-01-30 19:53:00,44.7,41.4,30.31,NNW,346,2.0,4.0,88,0.00,,,0.00,WUHU216DAVISVP2,2013-01-31 03:53:00,
2013-01-30 19:58:00,44.8,41.7,30.31,NNW,333,2.0,4.0,89,0.00,,,0.00,WUHU216DAVISVP2,2013-01-31 03:58:00,
2013-01-30 20:03:00,44.7,41.3,30.31,NNW,342,2.0,4.0,88,0.00,,,0.00,WUHU216DAVISVP2,2013-01-31 04:03:00,
2013-01-30 20:08:00,44.5,41.5,30.32,North,352,1.0,4.0,89,0.00,,,0.00,WUHU216DAVISVP2,2013-01-31 04:08:00,
2013-01-30 20:13:00,44.3,41.2,30.32,North,353,2.0,3.0,89,0.00,,,0.00,WUHU216DAVISVP2,2013-01-31 04:13:00,
2013-01-30 20:18:00,44.1,41.0,30.32,North,4,1.0,3.0,89,0.00,,,0.00,WUHU216DAVISVP2,2013-01-31 04:18:00,
2013-01-30 20:23:00,44.2,41.1,30.32,North,4,0.0,3.0,89,0.00,,,0.00,WUHU216DAVISVP2,2013-01-31 04:23:00,
2013-01-30 20:28:00,44.3,41.6,30.32,North,4,0.0,3.0,90,0.00,,,0.00,WUHU216DAVISVP2,2013-01-31 04:28:00,
2013-01-30 20:33:00,44.4,41.3,30.32,North,4,0.0,2.0,89,0.00,,,0.00,WUHU216DAVISVP2,2013-01-31 04:33:00,
2013-01-30 20:38:00,44.4,41.3,30.32,North,4,0.0,0.0,89,0.00,,,0.00,WUHU216DAVISVP2,2013-01-31 04:38:00,
2013-01-30 20:43:00,44.0,40.6,30.32,North,357,1.0,1.0,88,0.00,,,0.00,WUHU216DAVISVP2,2013-01-31 04:43:00,
2013-01-30 20:48:00,43.3,40.0,30.32,NNW,335,2.0,2.0,88,0.00,,,0.00,WUHU216DAVISVP2,2013-01-31 04:48:00,
2013-01-30 20:53:00,43.0,40.0,30.32,NNW,346,1.0,2.0,89,0.00,,,0.00,WUHU216DAVISVP2,2013-01-31 04:53:00,
2013-01-30 20:58:00,42.9,40.1,30.32,NNW,345,2.0,2.0,90,0.00,,,0.00,WUHU216DAVISVP2,2013-01-31 04:58:00,
2013-01-30 21:00:00,43.0,40.2,30.32,NNW,347,2.0,2.0,90,0.00,,,0.00,WUHU216DAVISVP2,2013-01-31 05:00:00,
2013-01-30 21:01:00,43.0,40.2,30.32,North,349,2.0,2.0,90,0.00,,,0.00,WUHU216DAVISVP2,2013-01-31 05:01:00,
2013-01-30 21:07:00,42.9,40.2,30.32,NNW,343,2.0,3.0,90,0.00,,,0.00,WUHU216DAVISVP2,2013-01-31 05:07:00,
2013-01-30 21:12:00,42.7,39.6,30.32,NNW,346,3.0,3.0,89,0.00,,,0.00,WUHU216DAVISVP2,2013-01-31 05:12:00,
2013-01-30 21:17:00,42.5,39.4,30.32,NNW,337,2.0,3.0,89,0.00,,,0.00,WUHU216DAVISVP2,2013-01-31 05:17:00,
2013-01-30 21:22:00,42.2,39.5,30.31,NNW,343,1.0,3.0,90,0.00,,,0.00,WUHU216DAVISVP2,2013-01-31 05:22:00,
2013-01-30 21:27:00,42.0,39.2,30.31,NNW,342,3.0,3.0,90,0.00,,,0.00,WUHU216DAVISVP2,2013-01-31 05:27:00,
2013-01-30 21:32:00,41.9,39.4,30.32,NNW,340,2.0,3.0,91,0.00,,,0.00,WUHU216DAVISVP2,2013-01-31 05:32:00,
2013-01-30 21:37:00,42.0,39.5,30.31,North,356,1.0,3.0,91,0.00,,,0.00,WUHU216DAVISVP2,2013-01-31 05:37:00,
2013-01-30 21:42:00,42.2,39.7,30.31,NNW,338,2.0,3.0,91,0.00,,,0.00,WUHU216DAVISVP2,2013-01-31 05:42:00,
2013-01-30 21:47:00,42.2,39.7,30.31,North,360,1.0,3.0,91,0.00,,,0.00,WUHU216DAVISVP2,2013-01-31 05:47:00,
2013-01-30 21:52:00,42.3,39.8,30.31,NNW,330,3.0,3.0,91,0.00,,,0.00,WUHU216DAVISVP2,2013-01-31 05:52:00,
2013-01-30 21:57:00,42.3,39.5,30.31,NNW,344,2.0,4.0,90,0.00,,,0.00,WUHU216DAVISVP2,2013-01-31 05:57:00,
2013-01-30 22:02:00,41.9,38.9,30.31,NNW,345,2.0,4.0,89,0.00,,,0.00,WUHU216DAVISVP2,2013-01-31 06:02:00,
2013-01-30 22:07:00,41.6,38.9,30.31,North,354,2.0,4.0,90,0.00,,,0.00,WUHU216DAVISVP2,2013-01-31 06:07:00,
2013-01-30 22:12:00,41.2,38.2,30.31,NNW,343,2.0,3.0,89,0.00,,,0.00,WUHU216DAVISVP2,2013-01-31 06:12:00,
2013-01-30 22:17:00,41.2,38.7,30.31,North,6,3.0,3.0,91,0.00,,,0.00,WUHU216DAVISVP2,2013-01-31 06:17:00,
2013-01-30 22:22:00,41.1,38.3,30.31,NNW,340,2.0,3.0,90,0.00,,,0.00,WUHU216DAVISVP2,2013-01-31 06:22:00,
2013-01-30 22:27:00,40.9,38.4,30.31,NNW,335,2.0,3.0,91,0.00,,,0.00,WUHU216DAVISVP2,2013-01-31 06:27:00,
2013-01-30 22:32:00,41.1,38.6,30.31,NNW,335,2.0,3.0,91,0.00,,,0.00,WUHU216DAVISVP2,2013-01-31 06:32:00,
2013-01-30 22:37:00,41.3,38.8,30.31,NNW,340,2.0,3.0,91,0.00,,,0.00,WUHU216DAVISVP2,2013-01-31 06:37:00,
2013-01-30 22:42:00,41.3,38.9,30.31,NW,326,2.0,3.0,91,0.00,,,0.00,WUHU216DAVISVP2,2013-01-31 06:42:00,
2013-01-30 22:47:00,41.4,39.2,30.31,NNW,346,2.0,3.0,92,0.00,,,0.00,WUHU216DAVISVP2,2013-01-31 06:47:00,
2013-01-30 22:52:00,41.4,38.9,30.31,NNW,340,2.0,3.0,91,0.00,,,0.00,WUHU216DAVISVP2,2013-01-31 06:52:00,
2013-01-30 22:57:00,40.9,38.2,30.32,NNW,347,2.0,4.0,90,0.00,,,0.00,WUHU216DAVISVP2,2013-01-31 06:57:00,
2013-01-30 23:02:00,40.6,38.1,30.31,NNW,345,1.0,4.0,91,0.00,,,0.00,WUHU216DAVISVP2,2013-01-31 07:02:00,
2013-01-30 23:07:00,40.6,38.4,30.31,NNW,340,2.0,4.0,92,0.00,,,0.00,WUHU216DAVISVP2,2013-01-31 07:07:00,
2013-01-30 23:12:00,40.6,38.1,30.32,NNW,337,0.0,4.0,91,0.00,,,0.00,WUHU216DAVISVP2,2013-01-31 07:12:00,
2013-01-30 23:17:00,40.7,38.5,30.32,NNW,335,2.0,3.0,92,0.00,,,0.00,WUHU216DAVISVP2,2013-01-31 07:17:00,
2013-01-30 23:22:00,40.9,38.7,30.32,NNW,338,3.0,3.0,92,0.00,,,0.00,WUHU216DAVISVP2,2013-01-31 07:22:00,
2013-01-30 23:27:00,40.9,38.7,30.32,NNW,347,2.0,3.0,92,0.00,,,0.00,WUHU216DAVISVP2,2013-01-31 07:27:00,
2013-01-30 23:32:00,40.7,38.2,30.32,NNW,330,2.0,3.0,91,0.00,,,0.00,WUHU216DAVISVP2,2013-01-31 07:32:00,
2013-01-30 23:37:00,40.5,38.1,30.32,NNW,348,2.0,3.0,91,0.00,,,0.00,WUHU216DAVISVP2,2013-01-31 07:37:00,
2013-01-30 23:42:00,40.4,38.2,30.32,North,354,2.0,3.0,92,0.00,,,0.00,WUHU216DAVISVP2,2013-01-31 07:42:00,
2013-01-30 23:47:00,40.3,37.8,30.32,NNW,344,1.0,3.0,91,0.00,,,0.00,WUHU216DAVISVP2,2013-01-31 07:47:00,
2013-01-30 23:52:00,40.2,38.0,30.32,NNW,344,3.0,3.0,92,0.00,,,0.00,WUHU216DAVISVP2,2013-01-31 07:52:00,
2013-01-30 23:57:00,40.3,38.2,30.32,North,3,2.0,3.0,92,0.00,,,0.00,WUHU216DAVISVP2,2013-01-31 07:57:00,